Time,TemperatureF,DewpointF,PressureIn,WindDirection,WindDirectionDegrees,WindSpeedMPH,WindSpeedGustMPH,Humidity,HourlyPrecipIn,Conditions,Clouds,dailyrainin,SoftwareType,DateUTC
2013-03-22 00:00:00,24.9,9.3,29.50,WSW,248,0.0,0.0,51,0.00,,,0.00,WUHU216HW,2013-03-22 04:00:00,
2013-03-22 00:03:00,24.8,9.1,29.50,WSW,248,0.0,0.0,51,0.00,,,0.00,WUHU216HW,2013-03-22 04:03:00,
2013-03-22 00:08:00,24.6,9.4,29.50,WSW,248,0.0,0.0,52,0.00,,,0.00,WUHU216HW,2013-03-22 04:08:00,
2013-03-22 00:13:00,24.6,9.8,29.50,WSW,248,0.0,0.0,53,0.00,,,0.00,WUHU216HW,2013-03-22 04:13:00,
2013-03-22 00:18:00,24.4,9.6,29.49,WNW,293,0.0,0.0,53,0.00,,,0.00,WUHU216HW,2013-03-22 04:18:00,
2013-03-22 00:24:00,24.4,9.6,29.50,WNW,293,0.0,0.0,53,0.00,,,0.00,WUHU216HW,2013-03-22 04:24:00,
2013-03-22 00:29:00,24.4,10.0,29.49,WNW,293,0.0,0.0,54,0.00,,,0.00,WUHU216HW,2013-03-22 04:29:00,
2013-03-22 00:34:00,24.4,10.0,29.49,WNW,293,0.0,0.0,54,0.00,,,0.00,WUHU216HW,2013-03-22 04:34:00,
2013-03-22 00:39:00,24.4,10.0,29.49,WNW,293,0.0,0.0,54,0.00,,,0.00,WUHU216HW,2013-03-22 04:39:00,
2013-03-22 00:44:00,24.4,10.0,29.49,WNW,293,0.0,0.0,54,0.00,,,0.00,WUHU216HW,2013-03-22 04:44:00,
2013-03-22 00:49:00,24.4,10.0,29.49,WNW,293,0.0,0.0,54,0.00,,,0.00,WUHU216HW,2013-03-22 04:49:00,
2013-03-22 00:54:00,24.4,10.0,29.49,WNW,293,0.0,0.0,54,0.00,,,0.00,WUHU216HW,2013-03-22 04:54:00,
2013-03-22 00:59:00,24.2,10.3,29.49,WNW,293,0.0,0.0,55,0.00,,,0.00,WUHU216HW,2013-03-22 04:59:00,
2013-03-22 01:04:00,24.0,10.1,29.49,WNW,293,0.0,0.0,55,0.00,,,0.00,WUHU216HW,2013-03-22 05:04:00,
2013-03-22 01:09:00,24.0,10.1,29.49,WNW,293,0.0,0.0,55,0.00,,,0.00,WUHU216HW,2013-03-22 05:09:00,
2013-03-22 01:14:00,24.0,10.5,29.49,NNW,338,0.0,0.0,56,0.00,,,0.00,WUHU216HW,2013-03-22 05:14:00,
2013-03-22 01:19:00,24.0,10.5,29.49,North,0,0.0,0.0,56,0.00,,,0.00,WUHU216HW,2013-03-22 05:19:00,
2013-03-22 01:24:00,24.0,10.5,29.49,North,0,0.0,0.0,56,0.00,,,0.00,WUHU216HW,2013-03-22 05:24:00,
2013-03-22 01:29:00,23.9,10.4,29.49,North,0,0.0,0.0,56,0.00,,,0.00,WUHU216HW,2013-03-22 05:29:00,
2013-03-22 01:35:00,23.9,10.7,29.49,North,0,0.0,0.0,57,0.00,,,0.00,WUHU216HW,2013-03-22 05:35:00,
2013-03-22 01:40:00,23.9,10.7,29.49,North,0,0.0,0.0,57,0.00,,,0.00,WUHU216HW,2013-03-22 05:40:00,
2013-03-22 01:45:00,23.7,10.6,29.49,North,0,0.0,0.0,57,0.00,,,0.00,WUHU216HW,2013-03-22 05:45:00,
2013-03-22 01:50:00,23.5,10.4,29.49,North,0,0.0,0.0,57,0.00,,,0.00,WUHU216HW,2013-03-22 05:50:00,
2013-03-22 01:55:00,23.5,10.8,29.49,North,0,0.0,0.0,58,0.00,,,0.00,WUHU216HW,2013-03-22 05:55:00,
2013-03-22 02:00:00,23.5,11.2,29.48,North,0,0.0,0.0,59,0.00,,,0.00,WUHU216HW,2013-03-22 06:00:00,
2013-03-22 02:05:00,23.3,11.0,29.48,North,0,0.0,0.0,59,0.00,,,0.00,WUHU216HW,2013-03-22 06:05:00,
2013-03-22 02:10:00,23.1,10.8,29.48,North,0,0.0,0.0,59,0.00,,,0.00,WUHU216HW,2013-03-22 06:10:00,
2013-03-22 02:15:00,23.0,10.7,29.49,North,0,0.0,0.0,59,0.00,,,0.00,WUHU216HW,2013-03-22 06:15:00,
2013-03-22 02:20:00,22.8,10.5,29.48,North,0,0.0,0.0,59,0.00,,,0.00,WUHU216HW,2013-03-22 06:20:00,
2013-03-22 02:25:00,22.8,10.9,29.49,North,0,0.0,0.0,60,0.00,,,0.00,WUHU216HW,2013-03-22 06:25:00,
2013-03-22 02:30:00,22.8,10.9,29.49,WSW,248,0.0,0.0,60,0.00,,,0.00,WUHU216HW,2013-03-22 06:30:00,
2013-03-22 02:35:00,22.8,11.3,29.48,WSW,248,0.0,0.0,61,0.00,,,0.00,WUHU216HW,2013-03-22 06:35:00,
2013-03-22 02:40:00,23.1,12.0,29.49,WNW,293,0.0,0.0,62,0.00,,,0.00,WUHU216HW,2013-03-22 06:40:00,
2013-03-22 02:45:00,23.7,12.3,29.49,WNW,293,0.0,0.0,62,0.00,,,0.00,WUHU216HW,2013-03-22 06:45:00,
2013-03-22 02:50:00,24.0,12.8,29.48,West,270,0.0,0.0,62,0.00,,,0.00,WUHU216HW,2013-03-22 06:50:00,
2013-03-22 02:56:00,24.4,13.2,29.49,NW,315,0.0,0.0,62,0.00,,,0.00,WUHU216HW,2013-03-22 06:56:00,
2013-03-22 03:01:00,24.9,13.7,29.49,WNW,293,0.0,2.6,62,0.00,,,0.00,WUHU216HW,2013-03-22 07:01:00,
2013-03-22 03:06:00,25.3,14.0,29.49,NW,315,0.0,3.8,62,0.00,,,0.00,WUHU216HW,2013-03-22 07:06:00,
2013-03-22 03:11:00,25.5,13.9,29.49,NW,315,0.0,3.8,61,0.00,,,0.00,WUHU216HW,2013-03-22 07:11:00,
2013-03-22 03:16:00,25.5,13.9,29.49,WNW,293,0.0,3.3,61,0.00,,,0.00,WUHU216HW,2013-03-22 07:16:00,
2013-03-22 03:21:00,25.7,14.0,29.49,WNW,293,0.0,0.0,61,0.00,,,0.00,WUHU216HW,2013-03-22 07:21:00,
2013-03-22 03:26:00,25.8,14.2,29.49,WNW,293,0.0,2.6,61,0.00,,,0.00,WUHU216HW,2013-03-22 07:26:00,
2013-03-22 03:32:00,26.2,14.9,29.49,WSW,248,0.0,4.2,62,0.00,,,0.00,WUHU216HW,2013-03-22 07:32:00,
2013-03-22 03:37:00,26.4,15.0,29.49,West,270,2.6,4.2,62,0.00,,,0.00,WUHU216HW,2013-03-22 07:37:00,
2013-03-22 03:42:00,26.6,14.9,29.49,WNW,293,0.0,2.6,61,0.00,,,0.00,WUHU216HW,2013-03-22 07:42:00,
2013-03-22 03:47:00,26.7,15.0,29.48,WNW,293,0.0,0.0,61,0.00,,,0.00,WUHU216HW,2013-03-22 07:47:00,
2013-03-22 03:52:00,26.7,15.0,29.48,WNW,293,5.3,5.3,61,0.00,,,0.00,WUHU216HW,2013-03-22 07:52:00,
2013-03-22 03:57:00,26.9,15.2,29.48,West,270,0.0,5.3,61,0.00,,,0.00,WUHU216HW,2013-03-22 07:57:00,
2013-03-22 04:02:00,26.9,15.2,29.48,WSW,248,0.0,0.0,61,0.00,,,0.00,WUHU216HW,2013-03-22 08:02:00,
2013-03-22 04:07:00,26.9,15.2,29.48,West,270,0.0,0.0,61,0.00,,,0.00,WUHU216HW,2013-03-22 08:07:00,
2013-03-22 04:12:00,26.9,15.2,29.48,WSW,248,0.0,0.0,61,0.00,,,0.00,WUHU216HW,2013-03-22 08:12:00,
2013-03-22 04:17:00,26.7,15.0,29.48,WNW,293,0.0,0.0,61,0.00,,,0.00,WUHU216HW,2013-03-22 08:17:00,
2013-03-22 04:22:00,26.9,15.2,29.48,West,270,0.0,0.0,61,0.00,,,0.00,WUHU216HW,2013-03-22 08:22:00,
2013-03-22 04:27:00,27.1,15.4,29.47,WSW,248,3.1,3.5,61,0.00,,,0.00,WUHU216HW,2013-03-22 08:27:00,
2013-03-22 04:33:00,27.3,15.6,29.47,West,270,0.6,3.5,61,0.00,,,0.00,WUHU216HW,2013-03-22 08:33:00,
2013-03-22 04:38:00,27.6,15.9,29.47,SW,225,0.0,5.1,61,0.00,,,0.00,WUHU216HW,2013-03-22 08:38:00,
2013-03-22 04:42:00,27.6,15.9,29.47,West,270,0.0,5.1,61,0.00,,,0.00,WUHU216HW,2013-03-22 08:42:00,
2013-03-22 04:48:00,27.8,16.1,29.47,West,270,0.0,4.6,61,0.00,,,0.00,WUHU216HW,2013-03-22 08:48:00,
2013-03-22 04:53:00,28.0,16.3,29.47,West,270,0.0,4.6,61,0.00,,,0.00,WUHU216HW,2013-03-22 08:53:00,
2013-03-22 04:58:00,28.0,15.9,29.47,West,270,0.0,3.8,60,0.00,,,0.00,WUHU216HW,2013-03-22 08:58:00,
2013-03-22 05:03:00,28.0,15.9,29.47,WSW,248,0.0,0.0,60,0.00,,,0.00,WUHU216HW,2013-03-22 09:03:00,
2013-03-22 05:08:00,28.0,15.9,29.47,WSW,248,0.0,5.5,60,0.00,,,0.00,WUHU216HW,2013-03-22 09:08:00,
2013-03-22 05:13:00,28.0,15.9,29.47,SW,225,0.0,5.5,60,0.00,,,0.00,WUHU216HW,2013-03-22 09:13:00,
2013-03-22 05:18:00,28.0,15.9,29.47,WSW,248,0.0,5.1,60,0.00,,,0.00,WUHU216HW,2013-03-22 09:18:00,
2013-03-22 05:23:00,28.0,15.9,29.47,WNW,293,3.8,5.1,60,0.00,,,0.00,WUHU216HW,2013-03-22 09:23:00,
2013-03-22 05:28:00,28.0,15.9,29.47,West,270,0.0,5.5,60,0.00,,,0.00,WUHU216HW,2013-03-22 09:28:00,
2013-03-22 05:33:00,28.0,15.9,29.47,West,270,4.4,5.5,60,0.00,,,0.00,WUHU216HW,2013-03-22 09:33:00,
2013-03-22 05:38:00,28.0,15.9,29.48,West,270,2.2,4.4,60,0.00,,,0.00,WUHU216HW,2013-03-22 09:38:00,
2013-03-22 05:43:00,28.0,15.9,29.48,West,270,0.0,3.1,60,0.00,,,0.00,WUHU216HW,2013-03-22 09:43:00,
2013-03-22 05:48:00,28.0,15.9,29.48,WSW,248,0.0,4.2,60,0.00,,,0.00,WUHU216HW,2013-03-22 09:48:00,
2013-03-22 05:53:00,28.2,16.1,29.48,West,270,3.3,5.5,60,0.00,,,0.00,WUHU216HW,2013-03-22 09:53:00,
2013-03-22 05:58:00,28.2,16.1,29.48,WSW,248,5.1,7.8,60,0.00,,,0.00,WUHU216HW,2013-03-22 09:58:00,
2013-03-22 06:03:00,28.2,16.1,29.48,SW,225,0.0,7.8,60,0.00,,,0.00,WUHU216HW,2013-03-22 10:03:00,
2013-03-22 06:09:00,28.5,16.5,29.48,WSW,248,0.0,6.2,60,0.00,,,0.00,WUHU216HW,2013-03-22 10:09:00,
2013-03-22 06:14:00,28.5,16.5,29.48,West,270,7.8,7.8,60,0.00,,,0.00,WUHU216HW,2013-03-22 10:14:00,
2013-03-22 06:19:00,28.5,16.0,29.48,WSW,248,0.0,7.8,59,0.00,,,0.00,WUHU216HW,2013-03-22 10:19:00,
2013-03-22 06:24:00,28.5,16.0,29.48,SW,225,0.0,4.9,59,0.00,,,0.00,WUHU216HW,2013-03-22 10:24:00,
2013-03-22 06:29:00,28.5,16.0,29.48,WSW,248,0.0,2.2,59,0.00,,,0.00,WUHU216HW,2013-03-22 10:29:00,
2013-03-22 06:34:00,28.5,16.0,29.49,WSW,248,0.0,2.4,59,0.00,,,0.00,WUHU216HW,2013-03-22 10:34:00,
2013-03-22 06:39:00,28.5,16.0,29.49,West,270,0.0,2.4,59,0.00,,,0.00,WUHU216HW,2013-03-22 10:39:00,
2013-03-22 06:44:00,28.2,16.1,29.49,WSW,248,0.0,6.7,60,0.00,,,0.00,WUHU216HW,2013-03-22 10:44:00,
2013-03-22 06:49:00,28.2,16.1,29.49,WSW,248,0.0,6.7,60,0.00,,,0.00,WUHU216HW,2013-03-22 10:49:00,
2013-03-22 06:54:00,28.5,16.5,29.49,SW,225,0.0,2.4,60,0.00,,,0.00,WUHU216HW,2013-03-22 10:54:00,
2013-03-22 06:59:00,28.5,16.5,29.49,WSW,248,2.2,2.4,60,0.00,,,0.00,WUHU216HW,2013-03-22 10:59:00,
2013-03-22 07:04:00,28.7,16.6,29.50,SW,225,0.0,2.2,60,0.00,,,0.00,WUHU216HW,2013-03-22 11:04:00,
2013-03-22 07:10:00,28.7,16.6,29.50,SSW,203,0.0,0.0,60,0.00,,,0.00,WUHU216HW,2013-03-22 11:10:00,
2013-03-22 07:15:00,28.9,16.4,29.50,WNW,293,0.0,5.1,59,0.00,,,0.00,WUHU216HW,2013-03-22 11:15:00,
2013-03-22 07:20:00,28.7,16.2,29.50,SW,225,5.3,5.8,59,0.00,,,0.00,WUHU216HW,2013-03-22 11:20:00,
2013-03-22 07:25:00,28.7,16.2,29.51,West,270,0.0,5.8,59,0.00,,,0.00,WUHU216HW,2013-03-22 11:25:00,
2013-03-22 07:30:00,28.7,16.2,29.51,SW,225,2.2,2.2,59,0.00,,,0.00,WUHU216HW,2013-03-22 11:30:00,
2013-03-22 07:35:00,28.9,16.4,29.51,WSW,248,0.0,2.2,59,0.00,,,0.00,WUHU216HW,2013-03-22 11:35:00,
2013-03-22 07:40:00,29.1,16.5,29.51,West,270,0.0,3.3,59,0.00,,,0.00,WUHU216HW,2013-03-22 11:40:00,
2013-03-22 07:45:00,29.1,16.5,29.51,SW,225,0.0,3.3,59,0.00,,,0.00,WUHU216HW,2013-03-22 11:45:00,
2013-03-22 07:50:00,29.1,16.5,29.51,SW,225,0.0,2.0,59,0.00,,,0.00,WUHU216HW,2013-03-22 11:50:00,
2013-03-22 07:55:00,29.4,16.8,29.51,WSW,248,0.0,0.0,59,0.00,,,0.00,WUHU216HW,2013-03-22 11:55:00,
2013-03-22 08:00:00,29.8,17.2,29.52,WSW,248,0.0,2.6,59,0.00,,,0.00,WUHU216HW,2013-03-22 12:00:00,
2013-03-22 08:06:00,29.8,17.3,29.52,SSW,203,0.0,2.6,59,0.00,,,0.00,WUHU216HW,2013-03-22 12:06:00,
2013-03-22 08:11:00,30.0,17.3,29.52,SW,225,0.0,0.0,59,0.00,,,0.00,WUHU216HW,2013-03-22 12:11:00,
2013-03-22 08:16:00,30.5,17.8,29.53,SW,225,0.0,0.0,59,0.00,,,0.00,WUHU216HW,2013-03-22 12:16:00,
2013-03-22 08:21:00,30.9,18.2,29.53,West,270,0.0,6.9,59,0.00,,,0.00,WUHU216HW,2013-03-22 12:21:00,
2013-03-22 08:26:00,31.4,18.6,29.54,SW,225,0.0,6.9,59,0.00,,,0.00,WUHU216HW,2013-03-22 12:26:00,
2013-03-22 08:31:00,31.8,18.7,29.54,WSW,248,0.0,2.0,58,0.00,,,0.00,WUHU216HW,2013-03-22 12:31:00,
2013-03-22 08:36:00,32.3,19.2,29.54,West,270,1.7,6.4,58,0.00,,,0.00,WUHU216HW,2013-03-22 12:36:00,
2013-03-22 08:41:00,32.9,19.7,29.54,SW,225,3.5,6.4,58,0.00,,,0.00,WUHU216HW,2013-03-22 12:41:00,
2013-03-22 08:46:00,33.2,19.5,29.54,NW,315,8.2,8.2,57,0.00,,,0.00,WUHU216HW,2013-03-22 12:46:00,
2013-03-22 08:52:00,33.6,19.4,29.54,WSW,248,4.6,8.2,56,0.00,,,0.00,WUHU216HW,2013-03-22 12:52:00,
2013-03-22 08:57:00,33.6,19.0,29.54,WSW,248,10.7,10.7,55,0.00,,,0.00,WUHU216HW,2013-03-22 12:57:00,
2013-03-22 09:02:00,33.4,18.8,29.54,WSW,248,0.0,10.7,55,0.00,,,0.00,WUHU216HW,2013-03-22 13:02:00,
2013-03-22 09:07:00,33.6,19.0,29.54,WNW,293,0.0,6.9,55,0.00,,,0.00,WUHU216HW,2013-03-22 13:07:00,
2013-03-22 09:12:00,33.9,19.5,29.54,NW,315,0.0,8.9,55,0.00,,,0.00,WUHU216HW,2013-03-22 13:12:00,
2013-03-22 09:17:00,34.3,19.3,29.54,WNW,293,2.0,8.9,54,0.00,,,0.00,WUHU216HW,2013-03-22 13:17:00,
2013-03-22 09:22:00,34.8,19.8,29.54,West,270,1.3,18.7,54,0.00,,,0.00,WUHU216HW,2013-03-22 13:22:00,
2013-03-22 09:27:00,35.2,19.7,29.54,West,270,3.5,18.7,53,0.00,,,0.00,WUHU216HW,2013-03-22 13:27:00,
2013-03-22 09:32:00,35.4,19.5,29.55,West,270,5.1,10.9,52,0.00,,,0.00,WUHU216HW,2013-03-22 13:32:00,
2013-03-22 09:37:00,35.2,18.9,29.54,WNW,293,6.7,10.9,52,0.00,,,0.00,WUHU216HW,2013-03-22 13:37:00,
2013-03-22 09:42:00,35.4,19.1,29.54,SW,225,2.4,11.4,51,0.00,,,0.00,WUHU216HW,2013-03-22 13:42:00,
2013-03-22 09:47:00,35.7,19.4,29.54,WSW,248,3.3,11.4,51,0.00,,,0.00,WUHU216HW,2013-03-22 13:47:00,
2013-03-22 09:52:00,36.1,19.3,29.55,SW,225,7.3,12.3,50,0.00,,,0.00,WUHU216HW,2013-03-22 13:52:00,
2013-03-22 09:57:00,37.0,20.1,29.54,NW,315,10.5,12.3,50,0.00,,,0.00,WUHU216HW,2013-03-22 13:57:00,
2013-03-22 10:03:00,37.7,20.2,29.54,SW,225,0.0,10.7,49,0.00,,,0.00,WUHU216HW,2013-03-22 14:03:00,
2013-03-22 10:08:00,38.4,20.4,29.54,NW,315,2.2,8.7,48,0.00,,,0.00,WUHU216HW,2013-03-22 14:08:00,
2013-03-22 10:13:00,39.3,20.1,29.54,West,270,3.3,8.7,46,0.00,,,0.00,WUHU216HW,2013-03-22 14:13:00,
2013-03-22 10:18:00,39.3,19.3,29.54,WSW,248,4.0,8.9,45,0.00,,,0.00,WUHU216HW,2013-03-22 14:18:00,
2013-03-22 10:23:00,39.0,19.3,29.54,WNW,293,9.1,11.4,45,0.00,,,0.00,WUHU216HW,2013-03-22 14:23:00,
2013-03-22 10:28:00,39.0,18.2,29.55,NW,315,13.4,13.4,43,0.00,,,0.00,WUHU216HW,2013-03-22 14:28:00,
2013-03-22 10:33:00,37.9,17.8,29.54,West,270,6.4,13.4,44,0.00,,,0.00,WUHU216HW,2013-03-22 14:33:00,
2013-03-22 10:38:00,37.9,18.8,29.54,WNW,293,2.2,11.4,46,0.00,,,0.00,WUHU216HW,2013-03-22 14:38:00,
2013-03-22 10:43:00,38.4,19.3,29.54,WNW,293,3.1,11.4,46,0.00,,,0.00,WUHU216HW,2013-03-22 14:43:00,
2013-03-22 10:48:00,38.3,19.2,29.55,NNW,338,2.6,10.7,46,0.00,,,0.00,WUHU216HW,2013-03-22 14:48:00,
2013-03-22 10:53:00,37.9,18.8,29.54,NW,315,10.0,10.7,46,0.00,,,0.00,WUHU216HW,2013-03-22 14:53:00,
2013-03-22 10:58:00,38.8,19.1,29.54,WNW,293,9.1,10.0,45,0.00,,,0.00,WUHU216HW,2013-03-22 14:58:00,
2013-03-22 11:03:00,38.8,19.1,29.54,WNW,293,6.9,9.1,45,0.00,,,0.00,WUHU216HW,2013-03-22 15:03:00,
2013-03-22 11:08:00,38.8,19.1,29.55,WNW,293,4.9,6.9,45,0.00,,,0.00,WUHU216HW,2013-03-22 15:08:00,
2013-03-22 11:13:00,39.3,19.1,29.54,NW,315,8.0,10.0,44,0.00,,,0.00,WUHU216HW,2013-03-22 15:13:00,
2013-03-22 11:18:00,39.0,17.7,29.54,NW,315,16.5,16.5,42,0.00,,,0.00,WUHU216HW,2013-03-22 15:18:00,
2013-03-22 11:24:00,39.0,18.8,29.54,West,270,4.6,16.5,44,0.00,,,0.00,WUHU216HW,2013-03-22 15:24:00,
2013-03-22 11:29:00,39.9,19.6,29.53,WSW,248,6.4,15.8,44,0.00,,,0.00,WUHU216HW,2013-03-22 15:29:00,
2013-03-22 11:34:00,39.5,18.7,29.54,NNW,338,3.1,15.8,43,0.00,,,0.00,WUHU216HW,2013-03-22 15:34:00,
2013-03-22 11:39:00,39.3,19.1,29.54,SW,225,6.0,14.5,44,0.00,,,0.00,WUHU216HW,2013-03-22 15:39:00,
2013-03-22 11:44:00,39.2,18.9,29.54,WNW,293,4.6,6.7,44,0.00,,,0.00,WUHU216HW,2013-03-22 15:44:00,
2013-03-22 11:49:00,39.5,19.8,29.54,South,180,4.2,8.5,45,0.00,,,0.00,WUHU216HW,2013-03-22 15:49:00,
2013-03-22 11:54:00,40.8,20.4,29.54,West,270,0.0,11.4,44,0.00,,,0.00,WUHU216HW,2013-03-22 15:54:00,
2013-03-22 11:59:00,41.1,20.2,29.54,WNW,293,0.0,11.4,43,0.00,,,0.00,WUHU216HW,2013-03-22 15:59:00,
2013-03-22 12:04:00,40.2,18.8,29.53,SW,225,3.8,10.7,42,0.00,,,0.00,WUHU216HW,2013-03-22 16:04:00,
2013-03-22 12:09:00,39.9,19.0,29.54,NW,315,3.3,10.7,43,0.00,,,0.00,WUHU216HW,2013-03-22 16:09:00,
2013-03-22 12:14:00,40.4,19.5,29.54,NW,315,0.8,10.7,43,0.00,,,0.00,WUHU216HW,2013-03-22 16:14:00,
2013-03-22 12:19:00,40.4,19.5,29.53,NW,315,5.5,5.5,43,0.00,,,0.00,WUHU216HW,2013-03-22 16:19:00,
2013-03-22 12:24:00,40.2,19.4,29.53,WNW,293,0.0,10.9,43,0.00,,,0.00,WUHU216HW,2013-03-22 16:24:00,
2013-03-22 12:29:00,39.9,19.0,29.53,SSW,203,5.3,10.9,43,0.00,,,0.00,WUHU216HW,2013-03-22 16:29:00,
2013-03-22 12:34:00,40.2,19.4,29.53,NW,315,3.8,7.8,43,0.00,,,0.00,WUHU216HW,2013-03-22 16:34:00,
2013-03-22 12:39:00,40.2,18.8,29.54,SW,225,0.0,7.8,42,0.00,,,0.00,WUHU216HW,2013-03-22 16:39:00,
2013-03-22 12:44:00,40.1,19.2,29.54,SW,225,7.3,7.3,43,0.00,,,0.00,WUHU216HW,2013-03-22 16:44:00,
2013-03-22 12:50:00,40.2,19.4,29.54,WSW,248,9.8,9.8,43,0.00,,,0.00,WUHU216HW,2013-03-22 16:50:00,
2013-03-22 12:54:00,40.1,19.2,29.54,West,270,3.3,9.8,43,0.00,,,0.00,WUHU216HW,2013-03-22 16:54:00,
2013-03-22 13:00:00,40.1,19.2,29.54,SW,225,0.0,12.9,43,0.00,,,0.00,WUHU216HW,2013-03-22 17:00:00,
2013-03-22 13:05:00,40.6,19.2,29.53,West,270,4.9,12.9,42,0.00,,,0.00,WUHU216HW,2013-03-22 17:05:00,
2013-03-22 13:10:00,40.8,19.9,29.53,SSW,203,1.3,13.6,43,0.00,,,0.00,WUHU216HW,2013-03-22 17:10:00,
2013-03-22 13:15:00,41.9,21.5,29.52,WSW,248,4.2,13.6,44,0.00,,,0.00,WUHU216HW,2013-03-22 17:15:00,
2013-03-22 13:20:00,43.3,21.6,29.52,SW,225,0.0,7.8,42,0.00,,,0.00,WUHU216HW,2013-03-22 17:20:00,
2013-03-22 13:25:00,44.4,22.6,29.53,SSW,203,2.6,7.8,42,0.00,,,0.00,WUHU216HW,2013-03-22 17:25:00,
2013-03-22 13:30:00,45.1,22.2,29.52,West,270,0.0,11.6,40,0.00,,,0.00,WUHU216HW,2013-03-22 17:30:00,
2013-03-22 13:35:00,45.5,23.0,29.53,NW,315,2.9,11.6,41,0.00,,,0.00,WUHU216HW,2013-03-22 17:35:00,
2013-03-22 13:41:00,46.0,22.3,29.52,NW,315,5.8,9.1,39,0.00,,,0.00,WUHU216HW,2013-03-22 17:41:00,
2013-03-22 13:46:00,45.6,22.0,29.53,WNW,293,13.4,13.4,39,0.00,,,0.00,WUHU216HW,2013-03-22 17:46:00,
2013-03-22 13:51:00,44.9,20.5,29.52,WNW,293,5.8,13.4,39,0.00,,,0.00,WUHU216HW,2013-03-22 17:51:00,
2013-03-22 13:56:00,43.5,20.7,29.53,West,270,3.1,9.1,40,0.00,,,0.00,WUHU216HW,2013-03-22 17:56:00,
2013-03-22 14:01:00,42.9,20.2,29.52,WSW,248,9.6,9.6,40,0.00,,,0.00,WUHU216HW,2013-03-22 18:01:00,
2013-03-22 14:06:00,42.4,19.7,29.53,NW,315,8.9,9.6,40,0.00,,,0.00,WUHU216HW,2013-03-22 18:06:00,
2013-03-22 14:12:00,42.0,19.9,29.52,NW,315,10.7,10.7,41,0.00,,,0.00,WUHU216HW,2013-03-22 18:12:00,
2013-03-22 14:17:00,42.6,21.0,29.52,WNW,293,7.8,10.7,42,0.00,,,0.00,WUHU216HW,2013-03-22 18:17:00,
2013-03-22 14:22:00,43.1,21.5,29.51,WNW,293,0.0,10.7,42,0.00,,,0.00,WUHU216HW,2013-03-22 18:22:00,
2013-03-22 14:27:00,44.4,22.1,29.52,West,270,12.7,12.7,41,0.00,,,0.00,WUHU216HW,2013-03-22 18:27:00,
2013-03-22 14:32:00,44.4,21.5,29.52,NW,315,8.7,12.7,40,0.00,,,0.00,WUHU216HW,2013-03-22 18:32:00,
2013-03-22 14:37:00,44.9,22.6,29.52,West,270,3.3,8.7,41,0.00,,,0.00,WUHU216HW,2013-03-22 18:37:00,
2013-03-22 14:42:00,45.3,21.7,29.51,SW,225,0.0,11.8,39,0.00,,,0.00,WUHU216HW,2013-03-22 18:42:00,
2013-03-22 14:47:00,46.0,22.3,29.51,West,270,11.6,11.8,39,0.00,,,0.00,WUHU216HW,2013-03-22 18:47:00,
2013-03-22 14:52:00,46.2,22.5,29.51,West,270,3.8,11.6,39,0.00,,,0.00,WUHU216HW,2013-03-22 18:52:00,
2013-03-22 14:57:00,46.7,23.0,29.51,NW,315,10.7,10.7,39,0.00,,,0.00,WUHU216HW,2013-03-22 18:57:00,
2013-03-22 15:02:00,46.7,22.3,29.51,West,270,8.9,10.7,38,0.00,,,0.00,WUHU216HW,2013-03-22 19:02:00,
2013-03-22 15:08:00,46.5,22.1,29.51,WNW,293,5.3,10.0,38,0.00,,,0.00,WUHU216HW,2013-03-22 19:08:00,
2013-03-22 15:13:00,46.5,22.1,29.51,West,270,8.0,10.0,38,0.00,,,0.00,WUHU216HW,2013-03-22 19:13:00,
2013-03-22 15:18:00,46.9,22.5,29.51,WSW,248,7.3,9.3,37,0.00,,,0.00,WUHU216HW,2013-03-22 19:18:00,
2013-03-22 15:23:00,46.5,21.5,29.51,NNW,338,0.0,12.7,37,0.00,,,0.00,WUHU216HW,2013-03-22 19:23:00,
2013-03-22 15:28:00,46.5,22.0,29.51,West,270,0.0,12.7,38,0.00,,,0.00,WUHU216HW,2013-03-22 19:28:00,
2013-03-22 15:33:00,46.5,21.5,29.51,West,270,6.7,9.3,37,0.00,,,0.00,WUHU216HW,2013-03-22 19:33:00,
2013-03-22 15:38:00,46.5,22.1,29.51,West,270,6.4,9.1,38,0.00,,,0.00,WUHU216HW,2013-03-22 19:38:00,
2013-03-22 15:43:00,47.1,22.6,29.51,West,270,3.3,8.5,38,0.00,,,0.00,WUHU216HW,2013-03-22 19:43:00,
2013-03-22 15:48:00,47.1,21.3,29.52,NW,315,13.4,13.4,36,0.00,,,0.00,WUHU216HW,2013-03-22 19:48:00,
2013-03-22 15:53:00,46.4,21.3,29.52,NW,315,6.0,13.4,37,0.00,,,0.00,WUHU216HW,2013-03-22 19:53:00,
2013-03-22 15:58:00,46.2,21.2,29.52,West,270,9.1,13.4,37,0.00,,,0.00,WUHU216HW,2013-03-22 19:58:00,
2013-03-22 16:03:00,46.5,21.5,29.52,West,270,6.7,13.4,37,0.00,,,0.00,WUHU216HW,2013-03-22 20:03:00,
2013-03-22 16:08:00,46.2,21.2,29.52,WNW,293,3.5,12.3,37,0.00,,,0.00,WUHU216HW,2013-03-22 20:08:00,
2013-03-22 16:13:00,45.6,20.7,29.52,WNW,293,2.4,12.3,37,0.00,,,0.00,WUHU216HW,2013-03-22 20:13:00,
2013-03-22 16:18:00,45.6,21.3,29.52,WNW,293,9.3,10.7,38,0.00,,,0.00,WUHU216HW,2013-03-22 20:18:00,
2013-03-22 16:23:00,45.3,20.3,29.52,WNW,293,4.9,11.1,37,0.00,,,0.00,WUHU216HW,2013-03-22 20:23:00,
2013-03-22 16:28:00,45.3,21.0,29.52,West,270,7.1,18.1,38,0.00,,,0.00,WUHU216HW,2013-03-22 20:28:00,
2013-03-22 16:33:00,45.3,21.7,29.52,NW,315,14.5,18.1,39,0.00,,,0.00,WUHU216HW,2013-03-22 20:33:00,
2013-03-22 16:38:00,45.3,21.0,29.52,WNW,293,6.7,14.5,38,0.00,,,0.00,WUHU216HW,2013-03-22 20:38:00,
2013-03-22 16:44:00,45.3,21.0,29.52,NW,315,11.1,13.6,38,0.00,,,0.00,WUHU216HW,2013-03-22 20:44:00,
2013-03-22 16:49:00,44.9,19.9,29.52,NW,315,9.8,13.6,37,0.00,,,0.00,WUHU216HW,2013-03-22 20:49:00,
2013-03-22 16:54:00,44.6,21.2,29.52,NW,315,9.1,10.5,39,0.00,,,0.00,WUHU216HW,2013-03-22 20:54:00,
2013-03-22 16:59:00,44.7,20.5,29.52,West,270,5.5,9.6,38,0.00,,,0.00,WUHU216HW,2013-03-22 20:59:00,
2013-03-22 17:04:00,45.1,20.8,29.51,NW,315,8.0,9.6,38,0.00,,,0.00,WUHU216HW,2013-03-22 21:04:00,
2013-03-22 17:09:00,45.1,20.8,29.52,NW,315,7.3,8.7,38,0.00,,,0.00,WUHU216HW,2013-03-22 21:09:00,
2013-03-22 17:14:00,44.9,20.7,29.52,NW,315,9.1,10.0,38,0.00,,,0.00,WUHU216HW,2013-03-22 21:14:00,
2013-03-22 17:19:00,44.9,20.7,29.52,West,270,2.0,13.6,38,0.00,,,0.00,WUHU216HW,2013-03-22 21:19:00,
2013-03-22 17:24:00,44.9,20.7,29.52,NNW,338,12.5,13.6,38,0.00,,,0.00,WUHU216HW,2013-03-22 21:24:00,
2013-03-22 17:29:00,44.9,21.3,29.51,NW,315,5.1,12.7,39,0.00,,,0.00,WUHU216HW,2013-03-22 21:29:00,
2013-03-22 17:34:00,45.1,20.8,29.52,West,270,5.3,10.0,38,0.00,,,0.00,WUHU216HW,2013-03-22 21:34:00,
2013-03-22 17:39:00,45.1,20.8,29.52,NNW,338,5.8,10.0,38,0.00,,,0.00,WUHU216HW,2013-03-22 21:39:00,
2013-03-22 17:44:00,44.9,20.7,29.52,WNW,293,7.8,12.3,38,0.00,,,0.00,WUHU216HW,2013-03-22 21:44:00,
2013-03-22 17:49:00,44.6,20.4,29.52,NW,315,7.6,16.1,38,0.00,,,0.00,WUHU216HW,2013-03-22 21:49:00,
2013-03-22 17:54:00,44.6,20.4,29.52,WNW,293,7.8,17.2,38,0.00,,,0.00,WUHU216HW,2013-03-22 21:54:00,
2013-03-22 18:00:00,44.7,19.9,29.53,WNW,293,3.5,17.2,37,0.00,,,0.00,WUHU216HW,2013-03-22 22:00:00,
2013-03-22 18:05:00,45.3,20.8,29.53,WNW,293,2.9,14.3,38,0.00,,,0.00,WUHU216HW,2013-03-22 22:05:00,
2013-03-22 18:10:00,46.0,21.0,29.53,WNW,293,1.5,8.7,37,0.00,,,0.00,WUHU216HW,2013-03-22 22:10:00,
2013-03-22 18:15:00,46.4,21.3,29.53,NW,315,6.9,11.8,37,0.00,,,0.00,WUHU216HW,2013-03-22 22:15:00,
2013-03-22 18:20:00,46.0,20.3,29.54,WNW,293,0.0,12.5,36,0.00,,,0.00,WUHU216HW,2013-03-22 22:20:00,
2013-03-22 18:25:00,45.5,19.8,29.54,WNW,293,3.3,12.5,36,0.00,,,0.00,WUHU216HW,2013-03-22 22:25:00,
2013-03-22 18:30:00,45.5,20.5,29.54,WNW,293,2.4,9.1,37,0.00,,,0.00,WUHU216HW,2013-03-22 22:30:00,
2013-03-22 18:35:00,45.3,20.3,29.54,NNW,338,4.9,8.0,37,0.00,,,0.00,WUHU216HW,2013-03-22 22:35:00,
2013-03-22 18:40:00,44.4,19.5,29.54,WNW,293,2.0,11.4,37,0.00,,,0.00,WUHU216HW,2013-03-22 22:40:00,
2013-03-22 18:45:00,43.3,19.4,29.54,West,270,0.0,11.4,38,0.00,,,0.00,WUHU216HW,2013-03-22 22:45:00,
2013-03-22 18:50:00,42.9,19.6,29.54,WNW,293,5.1,8.5,39,0.00,,,0.00,WUHU216HW,2013-03-22 22:50:00,
2013-03-22 18:55:00,42.6,19.2,29.55,NW,315,0.0,6.0,39,0.00,,,0.00,WUHU216HW,2013-03-22 22:55:00,
2013-03-22 19:00:00,41.9,19.3,29.54,WNW,293,0.0,4.6,40,0.00,,,0.00,WUHU216HW,2013-03-22 23:00:00,
2013-03-22 19:05:00,41.3,19.3,29.54,WNW,293,4.0,4.6,41,0.00,,,0.00,WUHU216HW,2013-03-22 23:05:00,
2013-03-22 19:10:00,40.8,18.8,29.54,NW,315,4.6,8.7,41,0.00,,,0.00,WUHU216HW,2013-03-22 23:10:00,
2013-03-22 19:15:00,40.4,19.0,29.55,NNW,338,0.0,8.7,42,0.00,,,0.00,WUHU216HW,2013-03-22 23:15:00,
2013-03-22 19:21:00,39.9,18.5,29.55,NW,315,0.0,8.7,42,0.00,,,0.00,WUHU216HW,2013-03-22 23:21:00,
2013-03-22 19:26:00,39.7,18.9,29.55,NW,315,0.0,8.7,42,0.00,,,0.00,WUHU216HW,2013-03-22 23:26:00,
2013-03-22 19:31:00,39.3,18.6,29.55,West,270,3.8,3.8,43,0.00,,,0.00,WUHU216HW,2013-03-22 23:31:00,
2013-03-22 19:36:00,39.0,18.2,29.55,WNW,293,5.5,7.6,43,0.00,,,0.00,WUHU216HW,2013-03-22 23:36:00,
2013-03-22 19:41:00,38.8,18.6,29.55,NW,315,3.1,7.6,44,0.00,,,0.00,WUHU216HW,2013-03-22 23:41:00,
2013-03-22 19:47:00,38.4,18.3,29.56,WNW,293,0.0,5.3,44,0.00,,,0.00,WUHU216HW,2013-03-22 23:47:00,
2013-03-22 19:52:00,38.3,18.6,29.56,West,270,1.7,8.5,45,0.00,,,0.00,WUHU216HW,2013-03-22 23:52:00,
2013-03-22 19:57:00,38.1,18.5,29.56,West,270,0.0,8.5,45,0.00,,,0.00,WUHU216HW,2013-03-22 23:57:00,
2013-03-22 20:02:00,37.9,18.3,29.56,West,270,0.0,4.9,45,0.00,,,0.00,WUHU216HW,2013-03-23 00:02:00,
2013-03-22 20:07:00,37.5,18.5,29.56,NW,315,0.0,4.9,46,0.00,,,0.00,WUHU216HW,2013-03-23 00:07:00,
2013-03-22 20:12:00,37.2,18.2,29.56,NNW,338,0.0,0.0,47,0.00,,,0.00,WUHU216HW,2013-03-23 00:12:00,
2013-03-22 20:17:00,37.0,18.5,29.57,NNW,338,0.0,0.0,47,0.00,,,0.00,WUHU216HW,2013-03-23 00:17:00,
2013-03-22 20:22:00,36.6,18.2,29.57,NNW,338,0.0,0.0,47,0.00,,,0.00,WUHU216HW,2013-03-23 00:22:00,
2013-03-22 20:27:00,36.3,18.4,29.57,NNW,338,0.0,0.0,48,0.00,,,0.00,WUHU216HW,2013-03-23 00:27:00,
2013-03-22 20:33:00,35.9,18.1,29.57,NNW,338,0.0,0.0,48,0.00,,,0.00,WUHU216HW,2013-03-23 00:33:00,
2013-03-22 20:38:00,35.7,18.5,29.57,NNW,338,0.0,0.0,49,0.00,,,0.00,WUHU216HW,2013-03-23 00:38:00,
2013-03-22 20:43:00,35.4,18.1,29.57,NNW,338,0.0,0.0,49,0.00,,,0.00,WUHU216HW,2013-03-23 00:43:00,
2013-03-22 20:48:00,35.2,17.9,29.58,NNW,338,0.0,0.0,49,0.00,,,0.00,WUHU216HW,2013-03-23 00:48:00,
2013-03-22 20:53:00,34.8,17.6,29.58,NNW,338,0.0,0.0,49,0.00,,,0.00,WUHU216HW,2013-03-23 00:53:00,
2013-03-22 20:58:00,34.7,17.9,29.58,NNW,338,0.0,0.0,50,0.00,,,0.00,WUHU216HW,2013-03-23 00:58:00,
2013-03-22 21:03:00,34.3,17.6,29.59,NNW,338,0.0,0.0,50,0.00,,,0.00,WUHU216HW,2013-03-23 01:03:00,
2013-03-22 21:08:00,34.3,18.0,29.59,NNW,338,0.0,0.0,51,0.00,,,0.00,WUHU216HW,2013-03-23 01:08:00,
2013-03-22 21:13:00,34.3,18.0,29.58,NNW,338,0.0,0.0,51,0.00,,,0.00,WUHU216HW,2013-03-23 01:13:00,
2013-03-22 21:18:00,33.9,17.6,29.58,NNW,338,0.0,0.0,51,0.00,,,0.00,WUHU216HW,2013-03-23 01:18:00,
2013-03-22 21:23:00,33.6,17.7,29.59,NNE,23,0.0,0.0,52,0.00,,,0.00,WUHU216HW,2013-03-23 01:23:00,
2013-03-22 21:28:00,33.6,17.7,29.59,NNE,23,0.0,0.0,52,0.00,,,0.00,WUHU216HW,2013-03-23 01:28:00,
2013-03-22 21:33:00,33.2,17.8,29.59,NNE,23,0.0,0.0,53,0.00,,,0.00,WUHU216HW,2013-03-23 01:33:00,
2013-03-22 21:38:00,33.0,17.7,29.59,NNE,23,0.0,0.0,53,0.00,,,0.00,WUHU216HW,2013-03-23 01:38:00,
2013-03-22 21:43:00,32.9,17.5,29.59,NNE,23,0.0,0.0,53,0.00,,,0.00,WUHU216HW,2013-03-23 01:43:00,
2013-03-22 21:49:00,32.7,17.3,29.59,NNE,23,0.0,0.0,53,0.00,,,0.00,WUHU216HW,2013-03-23 01:49:00,
2013-03-22 21:54:00,32.7,17.8,29.59,NNE,23,0.0,0.0,54,0.00,,,0.00,WUHU216HW,2013-03-23 01:54:00,
2013-03-22 21:59:00,32.5,17.6,29.59,NNE,23,0.0,0.0,54,0.00,,,0.00,WUHU216HW,2013-03-23 01:59:00,
2013-03-22 22:04:00,32.5,17.6,29.59,NNE,23,0.0,0.0,54,0.00,,,0.00,WUHU216HW,2013-03-23 02:04:00,
2013-03-22 22:09:00,32.5,18.0,29.59,NNE,23,0.0,0.0,55,0.00,,,0.00,WUHU216HW,2013-03-23 02:09:00,
2013-03-22 22:14:00,32.5,18.0,29.59,NNE,23,0.0,0.0,55,0.00,,,0.00,WUHU216HW,2013-03-23 02:14:00,
2013-03-22 22:19:00,32.5,18.0,29.60,NNE,23,0.0,0.0,55,0.00,,,0.00,WUHU216HW,2013-03-23 02:19:00,
2013-03-22 22:24:00,32.5,18.0,29.60,NNE,23,0.0,0.0,55,0.00,,,0.00,WUHU216HW,2013-03-23 02:24:00,
2013-03-22 22:29:00,32.3,17.9,29.60,NNE,23,0.0,0.0,55,0.00,,,0.00,WUHU216HW,2013-03-23 02:29:00,
2013-03-22 22:34:00,32.3,17.9,29.60,NNE,23,0.0,0.0,55,0.00,,,0.00,WUHU216HW,2013-03-23 02:34:00,
2013-03-22 22:39:00,32.3,18.3,29.61,North,0,0.0,0.0,56,0.00,,,0.00,WUHU216HW,2013-03-23 02:39:00,
2013-03-22 22:44:00,32.1,18.1,29.60,North,0,0.0,0.0,56,0.00,,,0.00,WUHU216HW,2013-03-23 02:44:00,
2013-03-22 22:49:00,32.1,18.1,29.60,North,0,0.0,0.0,56,0.00,,,0.00,WUHU216HW,2013-03-23 02:49:00,
2013-03-22 22:54:00,32.1,18.1,29.60,North,0,0.0,0.0,56,0.00,,,0.00,WUHU216HW,2013-03-23 02:54:00,
2013-03-22 22:59:00,31.8,17.8,29.60,North,0,0.0,0.0,56,0.00,,,0.00,WUHU216HW,2013-03-23 02:59:00,
2013-03-22 23:05:00,31.8,17.8,29.61,North,0,0.0,0.0,56,0.00,,,0.00,WUHU216HW,2013-03-23 03:05:00,
2013-03-22 23:10:00,31.6,17.6,29.61,North,0,0.0,0.0,56,0.00,,,0.00,WUHU216HW,2013-03-23 03:10:00,
2013-03-22 23:15:00,31.2,17.3,29.61,North,0,0.0,0.0,56,0.00,,,0.00,WUHU216HW,2013-03-23 03:15:00,
2013-03-22 23:20:00,31.1,17.5,29.61,North,0,0.0,0.0,57,0.00,,,0.00,WUHU216HW,2013-03-23 03:20:00,
2013-03-22 23:25:00,30.9,17.4,29.61,North,0,0.0,0.0,57,0.00,,,0.00,WUHU216HW,2013-03-23 03:25:00,
2013-03-22 23:30:00,30.7,17.2,29.61,North,0,0.0,0.0,57,0.00,,,0.00,WUHU216HW,2013-03-23 03:30:00,
2013-03-22 23:35:00,30.5,17.4,29.60,North,0,0.0,0.0,58,0.00,,,0.00,WUHU216HW,2013-03-23 03:35:00,
2013-03-22 23:40:00,30.2,17.1,29.61,North,0,0.0,0.0,58,0.00,,,0.00,WUHU216HW,2013-03-23 03:40:00,
2013-03-22 23:45:00,30.0,16.9,29.61,North,0,0.0,0.0,58,0.00,,,0.00,WUHU216HW,2013-03-23 03:45:00,
2013-03-22 23:50:00,29.6,16.6,29.61,North,0,0.0,0.0,58,0.00,,,0.00,WUHU216HW,2013-03-23 03:50:00,
2013-03-22 23:55:00,29.4,16.4,29.61,North,0,0.0,0.0,58,0.00,,,0.00,WUHU216HW,2013-03-23 03:55:00,